TimeEST,TemperatureF,Dew PointF,Humidity,Sea Level PressureIn,VisibilityMPH,Wind Direction,Wind SpeedMPH,Gust SpeedMPH,PrecipitationIn,Events,Conditions,WindDirDegrees,DateUTC
12:19 AM,39.2,37.4,93,30.08,3.0,East,19.6,-,0.01,Rain,Light Rain,80,2012-12-17 05:19:00
12:54 AM,39.0,37.0,93,30.07,4.0,East,20.7,-,0.02,Rain,Light Rain,80,2012-12-17 05:54:00
1:05 AM,39.2,37.4,93,30.07,4.0,East,20.7,-,0.00,Rain,Light Rain,80,2012-12-17 06:05:00
1:15 AM,39.2,37.4,93,30.06,4.0,East,19.6,-,0.00,Rain,Light Rain,80,2012-12-17 06:15:00
1:52 AM,39.2,37.4,93,30.07,5.0,ENE,19.6,-,0.01,Rain,Light Rain,70,2012-12-17 06:52:00
1:54 AM,39.0,37.0,93,30.07,4.0,ENE,19.6,-,0.01,Rain,Light Rain,70,2012-12-17 06:54:00
2:54 AM,39.0,37.0,93,30.05,4.0,ENE,18.4,-,0.01,Rain,Light Rain,70,2012-12-17 07:54:00
3:19 AM,39.2,37.4,93,30.05,4.0,NE,18.4,-,0.00,Rain,Light Rain,40,2012-12-17 08:19:00
3:33 AM,39.2,37.4,93,30.04,4.0,ENE,16.1,-,0.00,Rain,Light Rain,70,2012-12-17 08:33:00
3:54 AM,39.0,37.9,96,30.03,3.0,ENE,18.4,-,0.01,Rain,Light Rain,70,2012-12-17 08:54:00
4:54 AM,39.9,37.9,93,30.01,4.0,ENE,17.3,-,0.01,Rain,Light Rain,70,2012-12-17 09:54:00
5:54 AM,39.9,37.9,93,30.01,3.0,ENE,13.8,-,0.01,Rain,Light Rain,70,2012-12-17 10:54:00
5:57 AM,39.2,39.2,100,30.01,2.5,ENE,18.4,24.2,0.00,Rain,Light Rain,70,2012-12-17 10:57:00
6:05 AM,39.2,37.4,93,30.01,3.0,ENE,16.1,-,0.00,Rain,Light Rain,70,2012-12-17 11:05:00
6:54 AM,39.9,37.9,93,30.01,4.0,ENE,17.3,-,0.02,Rain,Light Rain,70,2012-12-17 11:54:00
7:07 AM,39.2,37.4,93,30.01,4.0,ENE,17.3,-,0.01,Rain,Light Rain,70,2012-12-17 12:07:00
7:54 AM,39.9,39.0,97,30.00,2.5,ENE,16.1,-,0.05,Rain,Light Rain,60,2012-12-17 12:54:00
8:54 AM,41.0,39.9,96,30.00,1.8,ENE,17.3,-,0.02,,Overcast,60,2012-12-17 13:54:00
9:54 AM,42.1,41.0,96,29.99,1.8,ENE,19.6,-,0.01,Rain,Light Rain,70,2012-12-17 14:54:00
10:04 AM,42.8,41.0,93,29.98,2.0,ENE,19.6,-,0.00,Rain,Light Rain,70,2012-12-17 15:04:00
10:54 AM,42.1,42.1,100,29.97,2.5,ENE,16.1,-,0.01,Rain,Light Rain,60,2012-12-17 15:54:00
11:25 AM,42.8,42.8,100,29.97,1.5,ENE,13.8,-,0.00,Rain,Light Rain,60,2012-12-17 16:25:00
11:54 AM,43.0,42.1,97,29.96,1.2,ENE,12.7,-,0.00,Rain,Light Rain,60,2012-12-17 16:54:00
12:34 PM,42.8,42.8,100,29.94,1.0,NE,12.7,-,0.03,Rain,Light Rain,50,2012-12-17 17:34:00
12:54 PM,43.0,43.0,100,29.94,1.0,ENE,12.7,-,0.04,Rain,Light Rain,60,2012-12-17 17:54:00
1:54 PM,44.1,44.1,100,29.93,2.0,ENE,13.8,-,0.02,Rain,Light Rain,70,2012-12-17 18:54:00
2:01 PM,44.6,44.6,100,29.93,2.5,ENE,11.5,-,0.00,,Overcast,70,2012-12-17 19:01:00
2:10 PM,44.6,44.6,100,29.93,1.8,NE,9.2,-,0.00,,Overcast,50,2012-12-17 19:10:00
2:22 PM,44.6,44.6,100,29.93,2.0,NE,11.5,-,0.00,,Light Drizzle,50,2012-12-17 19:22:00
2:54 PM,44.1,44.1,100,29.94,1.2,NE,9.2,-,0.01,Rain,Light Rain,40,2012-12-17 19:54:00
3:13 PM,39.2,39.2,100,29.95,0.5,NNW,5.8,-,0.01,Rain,Rain,330,2012-12-17 20:13:00
3:54 PM,37.9,37.0,97,29.89,0.5,North,8.1,-,0.05,Rain,Light Rain,350,2012-12-17 20:54:00
4:47 PM,44.6,44.6,100,29.89,1.5,ENE,11.5,-,0.03,Rain,Light Rain,70,2012-12-17 21:47:00
4:54 PM,44.1,44.1,100,29.89,1.5,ENE,13.8,-,0.03,Rain,Light Rain,70,2012-12-17 21:54:00
7:54 PM,45.0,44.1,97,29.89,1.5,ENE,10.4,-,0.02,Rain,Light Rain,70,2012-12-18 00:54:00
8:54 PM,45.0,44.1,97,29.88,1.5,ENE,10.4,-,0.03,Rain,Light Rain,60,2012-12-18 01:54:00
9:54 PM,45.0,44.1,97,29.85,1.5,ENE,12.7,-,0.02,Rain,Light Rain,70,2012-12-18 02:54:00
10:29 PM,44.6,44.6,100,29.83,1.5,East,13.8,-,0.01,Rain,Light Rain,80,2012-12-18 03:29:00
10:54 PM,45.0,44.1,97,29.83,1.5,ENE,13.8,-,0.02,Rain,Light Rain,70,2012-12-18 03:54:00
11:54 PM,45.0,45.0,100,29.80,1.5,ENE,11.5,-,0.04,Rain,Light Rain,60,2012-12-18 04:54:00